CZ-6A DEB

Satellite information

Favourite Embed

Satellite Type and Status

DEBRISIN ORBIT

Key statistics

Satellite CZ-6A DEB at a glance.

Uptime

1024

Days in orbit

Revolutions

≈ 14.1

Per day

Orbit

SSO

Sun Synchronous Orbit

Inclination

98.8

Latest

Satellite identification and parameters

Extended collection of information and parameters for CZ-6A DEB.

Object identification

Identified? True

Debris? True

Object name: CZ-6A DEB

International designator: 2022-151AAP

Object number (NORAD): 55891

Object ID (CCSDS): 55891

Country: PEOPLES REPUBLIC OF CHINA (PRC)

Current information (Y/N): Y

RCS size: SMALL

Orbital parameters

Period: 102.227 minutes

Inclination: 98.8341 deg

SMA: 7242.207 km

Apoapsis: 908.671 km

Periapsis: 819.473 km

RAAN: 239.3393 deg

Eccentricy: 0.0061582

Argument of periapsis: 102.6511 deg

Mean anomaly: 258.1553 deg

Mean motion: 14.08628105 rev/day

Mean motion (dot): 0.00000674 rev/day2

B* drag term: 0.00040980009 1/REarth

Two-line elements (TLE)

Creation date: Aug. 31, 2025, 2:26 a.m.

Reference frame: TEME

Reference center: EARTH

Epoch: Aug. 30, 2025, 10:56 p.m. UTC

TLE line 0: 0 CZ-6A DEB

TLE line 1: 1 55891U 22151AAP 25242.95613770 .00000674 00000-0 40980-3 0 9993

TLE line 2: 2 55891 98.8341 239.3393 0061582 102.6511 258.1553 14.08628105138571

Live tracking on map

Real-time ground track for satellite CZ-6A DEB.

In-orbit conjunctions

A list of the most updated potential collisions computed for object CZ-6A DEB.

Target Orbit TCA Probability of collision Miss distance Type
FENGYUN 1C DEB SSO 2024-11-13 14:09:29 0.0002440586 893.0 (m) DEBRIS
COSMOS 1275 DEB LEO 2024-10-23 09:06:46 0.0002140896 77.0 (m) DEBRIS
SL-3 R/B LEO 2024-08-19 12:39:31 0.002162467 44.0 (m) ROCKET BODY

Associated space launch

Chinese satellite reported for atmospheric/ocean/environmental/spatial parameter research purposes, details TBD.

CZ-6A DEB was lifted into orbit during the mission ‘Long March 6A | Yunhai 3’, on board a Long March 6A space rocket.

The launch took place on Nov. 11, 2022, 10:52 p.m. from Launch Complex 9A.

For more information about the launch, click the button.

Launch to space Long March 6A | Yunhai 3
Long March 6A | Yunhai 3

Agency: N/A

Status: Launch Successful

Launch date: Nov. 11, 2022, 10:52 p.m. UTC

Rocket: Long March 6A

Launch pad: Launch Complex 9A

Location: Taiyuan Satellite Launch Center, People's Republic of China

...

Latest news about this satellite

There are no fresh news available about this satellite. Check back as we update our databases every day.


Newsletter sign-up

Weekly statistics, charts and insights to help you stay on top of the space industry.